Theta_e
333 334 331 331 333 334 334 333 329 323 325 330 328 332 334 337 331 333 334 318 310 308 309 312 314 315 315 315 315 315 316 315 314 313 311 311 310 309
332 333 332 332 333 333 334 335 333 329 324 330 331 332 333 333 331 334 335 318 308 307 306 308 310 312 312 312 312 312 313 313 312 312 311 309 309 308
333 332 332 333 332 332 332 334 334 332 327 329 334 335 330 330 331 332 331 330 324 306 305 306 306 307 307 308 308 309 309 310 310 310 310 309 308 307
332 332 331 331 333 333 331 331 332 334 330 327 332 332 327 328 330 327 324 324 326 309 305 304 304 304 305 305 305 304 305 305 305 306 306 307 307 306
331 330 331 332 332 331 331 330 330 330 332 330 328 333 328 323 322 321 321 319 319 310 302 302 303 304 304 304 304 303 303 301 301 301 301 302 303 304
331 330 330 331 330 331 328 326 328 328 329 329 329 331 322 319 320 316 308 310 311 309 307 305 303 302 303 304 303 302 301 300 299 299 298 297 297 299
331 331 330 327 317 319 329 329 325 324 324 323 326 328 321 309 313 316 315 309 307 309 309 307 306 304 305 302 305 301 300 299 299 298 297 296 295 296
324 330 330 314 313 305 306 306 320 325 322 322 322 322 327 319 321 320 314 299 300 303 306 304 305 304 306 306 303 300 299 298 298 298 297 296 295 294
307 325 329 329 316 325 306 303 303 302 307 325 322 324 325 329 324 315 311 310 317 305 307 304 300 304 305 304 300 299 298 297 297 297 296 295 294 293
304 310 317 327 324 322 325 327 321 322 315 313 324 326 328 329 326 319 317 312 303 302 307 299 294 298 301 302 299 299 298 297 296 296 295 294 293 292
298 300 302 305 305 298 320 324 325 326 316 305 309 311 309 305 312 318 308 302 297 292 299 299 290 292 295 296 299 297 297 296 295 295 295 294 293 292
295 298 295 296 291 290 295 313 325 327 328 322 314 307 306 312 299 318 315 307 303 290 295 298 289 290 288 290 295 296 297 294 294 294 294 294 293 292
293 296 298 291 289 289 289 295 309 321 316 317 319 321 321 320 316 312 320 313 313 305 299 302 294 291 295 292 291 293 294 297 295 294 294 294 293 293
290 293 293 290 289 289 290 290 291 292 315 320 319 320 320 317 313 309 314 317 320 321 302 305 294 297 294 288 289 291 294 294 294 294 293 293 292 292
290 289 288 289 289 289 290 288 288 299 305 312 315 317 320 322 319 308 311 313 304 298 302 304 302 298 299 293 289 286 286 290 293 292 292 291 291 291
287 288 288 286 287 288 289 291 292 293 296 302 311 315 308 299 302 302 303 293 293 291 296 302 299 297 293 294 293 287 288 289 289 290 291 291 291 291
286 287 287 287 287 288 288 289 290 290 290 289 291 295 303 305 301 302 298 295 298 297 292 294 298 298 299 294 291 292 288 290 289 290 289 288 289 289
286 285 285 285 285 286 286 287 288 288 289 288 289 290 290 293 301 295 296 298 299 299 296 294 291 288 289 290 295 294 291 291 288 288 288 287 286 288
285 285 285 285 285 286 286 286 286 287 287 287 287 288 288 288 288 290 293 296 299 301 300 295 291 292 289 290 291 292 293 290 288 287 288 287 287 287
285 285 285 285 286 286 286 286 286 286 287 287 287 287 287 286 287 289 288 289 290 291 291 292 292 294 295 293 291 290 289 289 287 287 286 287 286 285
285 285 286 286 286 286 286 285 286 286 286 286 286 286 286 286 286 287 287 287 287 288 289 288 291 288 288 287 286 285 285 288 289 287 286 285 283 280
285 285 285 287 288 288 288 287 286 286 286 286 286 286 286 286 286 286 286 287 286 287 288 287 287 287 287 289 288 284 284 285 285 286 286 285 282 278
286 286 285 286 287 287 288 287 286 286 287 286 286 286 286 285 286 286 286 286 286 286 286 285 286 286 287 288 287 283 283 284 283 282 283 283 284 283
Wind_Speed
16 16 15 13 12 12 12 12 12 14 14 10 8 12 11 12 15 13 16 17 21 20 22 22 24 24 23 21 21 22 21 21 20 20 20 19 17 16
13 17 16 14 15 13 13 12 13 14 16 12 10 9 12 11 12 17 17 13 19 21 22 23 25 25 24 24 23 22 21 22 21 21 20 20 20 18
17 17 20 19 14 13 13 13 14 13 15 15 12 9 11 13 12 13 13 13 10 21 23 24 24 24 24 25 25 23 22 22 22 22 22 22 22 20
19 19 20 15 19 17 13 16 15 15 14 22 14 10 13 13 13 14 10 10 12 15 21 22 24 26 27 27 26 23 24 23 23 23 22 22 22 21
16 18 19 19 17 14 17 16 14 14 14 15 15 11 9 7 8 8 11 10 9 10 19 21 22 25 28 29 27 26 25 23 22 21 21 20 20 19
18 17 17 17 18 18 15 16 15 13 14 14 14 12 8 7 8 8 6 5 8 7 10 12 16 21 24 27 28 27 27 26 25 24 21 19 17 17
18 17 17 18 22 15 12 13 15 14 12 12 14 12 8 5 12 8 10 6 8 7 8 8 8 10 14 23 24 29 29 28 28 27 25 22 20 19
17 16 15 14 14 19 18 24 21 18 17 13 13 15 18 14 11 11 9 5 5 9 9 9 10 12 12 13 25 28 30 30 30 29 27 25 24 21
15 18 17 14 16 17 19 28 27 25 24 19 19 19 19 18 14 12 14 10 12 5 12 11 9 14 10 11 23 28 30 31 32 31 29 26 24 23
13 15 18 18 17 17 18 17 18 22 22 17 22 21 20 17 16 19 18 14 1 3 11 8 6 10 8 10 21 26 31 31 32 31 30 28 26 24
14 14 14 16 19 17 18 21 22 22 17 25 29 27 22 18 15 10 10 8 6 5 11 4 5 3 5 9 10 24 27 27 29 30 30 29 27 24
13 14 14 14 24 23 16 17 18 17 17 14 13 17 21 18 18 21 14 14 7 2 10 11 6 5 3 5 10 9 12 24 28 29 29 28 27 13
11 11 12 18 22 25 23 15 20 19 15 14 12 11 13 16 14 16 18 17 15 11 9 12 7 5 3 3 2 8 10 11 14 17 27 28 29 25
12 10 12 24 27 21 19 19 19 15 12 12 12 14 12 9 11 15 18 16 18 20 16 19 7 11 9 5 5 5 9 9 10 12 12 19 28 30
10 15 21 19 19 12 17 21 13 5 8 11 11 12 13 14 13 13 13 18 5 2 12 22 9 10 9 5 6 5 6 8 10 10 11 12 14 12
15 12 11 12 10 9 8 10 8 8 6 5 8 9 3 3 5 6 6 4 3 2 5 15 11 12 6 5 4 4 4 5 11 11 11 11 11 13
14 8 6 6 7 8 8 7 7 7 7 6 5 6 7 7 6 7 6 5 8 6 6 7 10 9 8 10 5 7 8 7 8 10 11 11 11 12
9 7 7 7 7 8 8 9 7 9 7 6 6 5 5 3 7 5 6 8 9 10 10 9 5 4 2 4 10 10 10 10 9 11 10 10 10 12
7 7 7 7 7 7 7 8 9 9 9 7 7 7 6 4 0 2 3 5 9 9 9 8 11 9 9 12 2 16 9 9 10 11 10 11 7 11
6 7 8 9 8 8 7 7 8 8 8 8 8 6 6 3 2 2 3 3 1 1 1 6 8 10 13 10 4 2 18 8 8 9 8 5 2 7
8 8 9 9 9 8 9 9 8 8 8 7 8 8 7 5 3 5 3 3 5 4 6 6 6 2 2 3 3 1 2 9 10 9 7 7 5 4
8 8 9 10 10 11 8 7 8 8 7 7 6 7 7 4 5 5 5 1 3 2 2 2 5 5 3 6 4 5 3 4 4 5 6 6 7 9
9 9 8 9 9 9 10 9 9 8 8 8 7 6 6 6 5 4 4 4 3 2 1 2 4 2 4 6 4 4 6 6 6 5 3 8 8 8
Wind_Direction
222 220 219 223 224 226 225 227 234 250 249 219 232 204 218 224 226 217 221 208 203 203 204 204 205 205 199 202 206 209 210 211 211 209 210 213 211 217
222 222 224 227 224 223 224 225 228 239 258 243 227 211 208 220 215 219 228 213 202 201 203 205 206 204 199 197 202 206 208 209 209 207 208 211 213 219
227 225 228 226 228 223 224 226 230 226 240 254 245 217 212 219 219 217 226 218 212 208 204 206 208 202 197 195 201 203 203 206 205 203 204 213 216 221
229 231 235 233 228 228 225 227 227 223 231 250 238 216 218 210 221 218 218 219 220 202 209 208 207 204 198 196 199 199 200 202 201 198 202 211 217 221
230 232 232 236 233 228 227 227 228 230 226 240 249 241 216 196 210 222 219 218 221 197 205 212 213 209 205 198 201 199 201 200 195 192 201 209 215 220
229 228 234 238 237 233 231 234 240 237 234 236 243 235 212 209 212 209 213 216 213 205 210 210 213 215 211 207 203 201 201 200 193 194 201 203 210 214
234 221 215 223 226 230 243 236 236 238 237 232 241 239 210 190 208 197 219 196 223 205 214 211 204 211 216 216 208 203 202 200 197 197 202 205 210 212
274 260 241 215 212 207 220 242 239 233 231 227 234 234 235 223 223 211 198 169 239 190 205 223 196 216 214 210 209 203 205 200 197 199 202 203 209 211
297 285 254 239 218 233 227 220 235 238 234 228 230 234 238 233 220 206 199 208 227 163 199 229 192 225 213 213 205 205 203 203 201 201 202 202 206 211
319 311 301 267 253 247 243 231 222 231 228 229 236 238 242 241 210 212 214 215 324 168 188 217 177 224 206 214 208 207 208 207 205 203 201 200 201 208
329 318 319 315 329 330 247 238 242 247 228 225 226 229 241 233 207 199 197 184 211 211 199 183 196 193 205 218 218 211 213 211 207 208 204 200 199 204
328 322 325 333 325 326 320 291 251 244 234 219 218 225 237 238 217 206 199 209 203 178 206 193 151 146 228 222 206 210 210 212 208 209 207 202 196 197
317 324 324 323 314 310 302 285 276 271 248 238 233 239 230 223 216 217 219 211 213 228 180 176 169 172 214 150 211 203 205 206 209 215 212 206 197 194
312 311 312 314 311 304 302 288 283 291 267 244 239 236 230 213 193 207 214 228 237 233 169 191 177 180 181 160 192 189 207 205 200 210 208 207 208 204
311 303 302 307 304 311 323 316 301 268 249 247 241 234 233 238 205 201 214 233 262 297 178 192 200 185 191 186 161 171 143 204 205 202 199 201 199 200
324 316 304 296 288 290 313 321 328 330 301 281 269 249 208 120 169 155 188 168 159 179 242 199 188 167 171 193 144 139 184 190 192 198 200 203 202 202
314 307 316 321 325 330 337 326 326 333 335 327 318 312 279 218 196 183 161 169 199 175 200 214 199 201 197 164 173 177 175 177 200 184 189 201 202 202
312 318 320 323 327 331 322 317 337 335 332 321 312 297 279 266 251 187 171 189 196 196 197 192 180 146 49 321 245 193 182 192 167 181 190 195 206 203
317 315 312 314 315 311 311 328 328 319 315 313 313 317 313 297 173 316 291 233 219 194 196 176 186 196 166 226 254 216 205 193 167 177 188 190 199 194
304 308 310 314 311 314 316 314 306 311 321 321 313 308 309 300 327 283 233 187 194 205 131 188 199 199 188 211 187 178 214 160 165 186 185 177 90 113
305 307 309 305 308 307 311 310 304 306 306 309 307 310 312 310 295 269 268 227 179 170 186 199 210 140 101 99 90 248 121 173 161 175 167 171 162 144
290 294 299 303 305 304 305 303 303 305 305 302 300 302 294 286 293 286 274 292 274 281 256 133 150 157 182 201 202 138 118 132 101 147 140 129 165 179
284 283 288 291 298 298 302 305 300 299 301 302 299 292 286 291 293 289 282 251 235 233 204 210 175 199 206 204 162 125 165 151 154 153 120 118 105 108